Location: Poughquag
(41.6090°N, 73.6820°W)
Time: 03:25:17
(UTC-04:00)

Vanguard 1 Rocket - Pass Details

Date: 03 June 2020
Orbit: 653 x 4224 km, 34.3° (Epoch: 06 July)

Event Time Altitude Azimuth Distance (km) Brightness Sun altitude
Rises 21:57:21 0° 211° (SSW) 8,381 12.1 -14.1°
Reaches altitude 10° 22:04:01 10° 204° (SSW) 7,420 11.8 -14.9°
Maximum altitude 22:25:30 37° 148° (SSE) 4,819 10.5 -17.4°
Drops below altitude 10° 22:40:36 10° 90° (E) 5,354 11.0 -18.9°
Sets 22:44:21 0° 82° (E) 5,935 11.3 -19.3°
